When you browse on this site, cookies collect data to enhance your experience and personalize the content and advertising you see.
Visit our Privacy Policy to learn more. By continuing to use the site, you agree to this use of cookies and data.
  • En España
  • Lista de países
  • Para 7 días
  • Temperatura del agua
  • El tiempo en el mapa
  • Informadores
  • user-avatar
    Iniciar sesión

    Tiempo cada hora Tynda

    Hoy, 28 Mayo, Jueves

    Tiempo Temperatura Precipitaciones Viento Presión Humedad
    00:00 +13°C° 0 mm 2 mps 693 mmHg 43%
    01:00 +12°C° 0 mm 2 mps 693 mmHg 43%
    02:00 +12°C° 0 mm 2 mps 693 mmHg 45%
    03:00 +12°C° 0 mm 2 mps 693 mmHg 47%
    04:00 +13°C° 0 mm 2 mps 693 mmHg 50%
    05:00 +13°C° 0 mm 2 mps 693 mmHg 52%
    06:00 +15°C° 0 mm 2 mps 694 mmHg 49%
    07:00 +18°C° 0 mm 3 mps 694 mmHg 46%
    08:00 +21°C° 0 mm 4 mps 694 mmHg 40%
    09:00 +22°C° 0 mm 4 mps 694 mmHg 40%
    10:00 +22°C° 0 mm 5 mps 694 mmHg 39%
    11:00 +23°C° 0 mm 5 mps 694 mmHg 38%
    12:00 +21°C° 0.1 mm 4 mps 694 mmHg 49%
    13:00 +19°C° 0.1 mm 4 mps 694 mmHg 59%
    14:00 +18°C° 0 mm 3 mps 695 mmHg 70%
    15:00 +14°C° 0.6 mm 4 mps 695 mmHg 76%
    16:00 +12°C° 0.6 mm 4 mps 696 mmHg 82%
    17:00 +8°C° 0.6 mm 4 mps 696 mmHg 88%
    18:00 +8°C° 1.6 mm 3 mps 697 mmHg 88%
    19:00 +8°C° 1.6 mm 2 mps 698 mmHg 89%
    20:00 +8°C° 1.6 mm 1 mps 699 mmHg 89%
    21:00 +7°C° 0 mm 1 mps 699 mmHg 90%
    22:00 +6°C° 0 mm 1 mps 699 mmHg 91%
    23:00 +5°C° 0 mm 1 mps 700 mmHg 92%

    Mañana, 29 Mayo, Viernes

    Tiempo Temperatura Precipitaciones Viento Presión Humedad
    00:00 +5°C° 0 mm 1 mps 700 mmHg 91%
    01:00 +4°C° 0 mm 1 mps 701 mmHg 91%
    02:00 +4°C° 0 mm 1 mps 701 mmHg 91%
    03:00 +4°C° 0 mm 1 mps 701 mmHg 88%
    04:00 +4°C° 0 mm 1 mps 702 mmHg 86%
    05:00 +5°C° 0 mm 1 mps 702 mmHg 83%
    06:00 +5°C° 0 mm 2 mps 702 mmHg 75%
    07:00 +7°C° 0 mm 2 mps 702 mmHg 66%
    08:00 +8°C° 0 mm 2 mps 703 mmHg 58%
    09:00 +10°C° 0 mm 2 mps 703 mmHg 51%
    10:00 +13°C° 0 mm 2 mps 702 mmHg 44%
    11:00 +14°C° 0 mm 2 mps 702 mmHg 37%
    12:00 +15°C° 0 mm 2 mps 702 mmHg 35%
    13:00 +16°C° 0 mm 2 mps 702 mmHg 33%
    14:00 +17°C° 0 mm 2 mps 702 mmHg 31%
    15:00 +16°C° 0 mm 2 mps 702 mmHg 32%
    16:00 +16°C° 0 mm 2 mps 702 mmHg 33%
    17:00 +16°C° 0 mm 2 mps 702 mmHg 34%
    18:00 +14°C° 0 mm 2 mps 702 mmHg 41%
    19:00 +10°C° 0 mm 2 mps 701 mmHg 49%
    20:00 +8°C° 0 mm 2 mps 701 mmHg 56%
    21:00 +7°C° 0 mm 2 mps 702 mmHg 57%
    22:00 +7°C° 0 mm 1 mps 702 mmHg 58%
    23:00 +6°C° 0 mm 1 mps 702 mmHg 60%

    Pasado mañana, 30 Mayo, Sábado

    Tiempo Temperatura Precipitaciones Viento Presión Humedad
    00:00 +6°C° 0 mm 1 mps 702 mmHg 61%
    01:00 +5°C° 0 mm 1 mps 702 mmHg 62%
    02:00 +5°C° 0 mm 1 mps 702 mmHg 63%
    03:00 +5°C° 0 mm 1 mps 702 mmHg 62%
    04:00 +6°C° 0 mm 1 mps 702 mmHg 61%
    05:00 +6°C° 0 mm 1 mps 702 mmHg 60%
    06:00 +7°C° 0 mm 2 mps 702 mmHg 55%
    07:00 +8°C° 0 mm 3 mps 702 mmHg 51%
    08:00 +9°C° 0 mm 3 mps 703 mmHg 47%
    09:00 +9°C° 0.1 mm 3 mps 702 mmHg 48%
    10:00 +10°C° 0.1 mm 3 mps 702 mmHg 49%
    11:00 +10°C° 0.1 mm 3 mps 702 mmHg 50%
    12:00 +10°C° 0.1 mm 3 mps 701 mmHg 48%
    13:00 +11°C° 0.1 mm 3 mps 701 mmHg 47%
    14:00 +12°C° 0.1 mm 3 mps 701 mmHg 45%
    15:00 +13°C° 0 mm 2 mps 701 mmHg 39%
    16:00 +12°C° 0 mm 3 mps 701 mmHg 39%
    17:00 +12°C° 0 mm 3 mps 701 mmHg 39%
    18:00 +10°C° 0 mm 2 mps 701 mmHg 44%
    19:00 +10°C° 0 mm 1 mps 700 mmHg 49%
    20:00 +8°C° 0 mm 0 mps 700 mmHg 54%
    21:00 +8°C° 0 mm 1 mps 700 mmHg 55%
    22:00 +7°C° 0 mm 1 mps 700 mmHg 56%
    23:00 +6°C° 0 mm 1 mps 699 mmHg 57%

    31 Mayo, Domingo

    Tiempo Temperatura Precipitaciones Viento Presión Humedad
    00:00 +7°C° 0 mm 1 mps 699 mmHg 55%
    01:00 +7°C° 0 mm 1 mps 699 mmHg 53%
    02:00 +7°C° 0 mm 1 mps 699 mmHg 52%
    03:00 +7°C° 0 mm 1 mps 699 mmHg 52%
    04:00 +7°C° 0 mm 1 mps 699 mmHg 53%
    05:00 +7°C° 0 mm 1 mps 698 mmHg 53%
    06:00 +8°C° 0 mm 2 mps 698 mmHg 50%
    07:00 +10°C° 0 mm 2 mps 698 mmHg 46%
    08:00 +11°C° 0 mm 3 mps 698 mmHg 43%
    09:00 +13°C° 0 mm 3 mps 698 mmHg 39%
    10:00 +14°C° 0 mm 4 mps 698 mmHg 36%
    11:00 +15°C° 0 mm 5 mps 697 mmHg 32%
    12:00 +15°C° 0 mm 4 mps 697 mmHg 33%
    13:00 +16°C° 0 mm 3 mps 697 mmHg 33%
    14:00 +16°C° 0 mm 2 mps 697 mmHg 33%
    15:00 +15°C° 0.1 mm 2 mps 697 mmHg 42%
    16:00 +14°C° 0.1 mm 2 mps 697 mmHg 52%
    17:00 +12°C° 0.1 mm 2 mps 697 mmHg 61%
    18:00 +11°C° 0 mm 1 mps 697 mmHg 68%
    19:00 +10°C° 0 mm 1 mps 697 mmHg 75%
    20:00 +9°C° 0 mm 1 mps 697 mmHg 82%
    21:00 +7°C° 0 mm 0 mps 697 mmHg 84%
    22:00 +6°C° 0 mm 0 mps 697 mmHg 87%
    23:00 +5°C° 0 mm 0 mps 697 mmHg 90%

    1 Junio, Lunes

    Tiempo Temperatura Precipitaciones Viento Presión Humedad
    00:00 +4°C° 0 mm 0 mps 697 mmHg 91%
    01:00 +3°C° 0 mm 0 mps 697 mmHg 91%
    02:00 +3°C° 0 mm 0 mps 697 mmHg 92%
    03:00 +4°C° 0 mm 0 mps 697 mmHg 89%
    04:00 +5°C° 0 mm 0 mps 698 mmHg 86%
    05:00 +6°C° 0 mm 0 mps 698 mmHg 83%
    06:00 +9°C° 0 mm 0 mps 698 mmHg 73%
    07:00 +11°C° 0 mm 0 mps 698 mmHg 63%
    08:00 +14°C° 0 mm 0 mps 698 mmHg 52%
    09:00 +16°C° 0 mm 0 mps 698 mmHg 46%
    10:00 +17°C° 0 mm 0 mps 698 mmHg 40%
    11:00 +20°C° 0 mm 1 mps 697 mmHg 34%
    12:00 +20°C° 0 mm 1 mps 697 mmHg 33%
    13:00 +20°C° 0 mm 1 mps 696 mmHg 33%
    14:00 +20°C° 0 mm 1 mps 696 mmHg 32%
    15:00 +20°C° 0 mm 1 mps 696 mmHg 33%
    16:00 +19°C° 0 mm 1 mps 695 mmHg 35%
    17:00 +19°C° 0 mm 1 mps 695 mmHg 36%
    18:00 +15°C° 0 mm 1 mps 695 mmHg 44%
    19:00 +13°C° 0 mm 1 mps 694 mmHg 52%
    20:00 +10°C° 0 mm 0 mps 694 mmHg 61%
    21:00 +9°C° 0 mm 0 mps 694 mmHg 63%
    22:00 +8°C° 0 mm 0 mps 694 mmHg 65%
    23:00 +8°C° 0 mm 1 mps 694 mmHg 67%

    2 Junio, Martes

    Tiempo Temperatura Precipitaciones Viento Presión Humedad
    00:00 +6°C° 0 mm 0 mps 694 mmHg 69%
    01:00 +6°C° 0 mm 0 mps 693 mmHg 72%
    02:00 +5°C° 0 mm 0 mps 693 mmHg 74%
    03:00 +7°C° 0 mm 1 mps 693 mmHg 72%
    04:00 +8°C° 0 mm 1 mps 693 mmHg 69%
    05:00 +8°C° 0 mm 1 mps 693 mmHg 67%
    06:00 +10°C° 0 mm 1 mps 693 mmHg 61%
    07:00 +12°C° 0 mm 2 mps 693 mmHg 55%
    08:00 +14°C° 0 mm 2 mps 693 mmHg 49%
    09:00 +16°C° 0 mm 2 mps 693 mmHg 46%
    10:00 +17°C° 0 mm 3 mps 693 mmHg 42%
    11:00 +19°C° 0 mm 3 mps 693 mmHg 39%
    12:00 +19°C° 0.1 mm 3 mps 693 mmHg 39%
    13:00 +19°C° 0.1 mm 3 mps 692 mmHg 39%
    14:00 +19°C° 0.1 mm 3 mps 692 mmHg 39%
    15:00 +19°C° 0 mm 3 mps 692 mmHg 40%
    16:00 +19°C° 0 mm 3 mps 692 mmHg 42%
    17:00 +18°C° 0 mm 2 mps 692 mmHg 43%
    18:00 +16°C° 0 mm 2 mps 692 mmHg 52%
    19:00 +14°C° 0 mm 1 mps 692 mmHg 61%
    20:00 +11°C° 0 mm 1 mps 692 mmHg 70%
    21:00 +11°C° 0 mm 1 mps 692 mmHg 72%
    22:00 +10°C° 0 mm 1 mps 692 mmHg 74%
    23:00 +9°C° 0 mm 1 mps 693 mmHg 76%
    Mostrar más